Flag for Poland Weather past 2 weeks in Gliwice, Poland

Now
50 °F

Passing clouds.


Feels Like: 46 °F
Forecast: 45 / 62 °F
Wind: 10 mph from West

Location: Katowice Airport

Current Time: May 27, 2015 at 10:04:23 PM

Latest Report: May 27, 2015 at 9:30 PM


Visibility: N/A

Pressure: 30.04 "Hg

Humidity: 71%

Dew point: 41 °F

Location of GliwiceLocation

Historic Weather in Gliwice — Graph

°F

Gliwice temperature yesterday

Maximum temperature yesterday: 59 °F (at 12:30 PM)
Minimum temperature yesterday: 52 °F (at 11:30 PM)
Average temperature yesterday: 55 °F

Past Weeks' High & Low Weather Summary

 TemperatureHumidityPressure
High75 °F (May 19, 1:00 PM)100% (May 20, 4:30 AM)30.24 "Hg (May 20, 4:30 AM)
Low34 °F (May 15, 3:30 AM)28% (May 13, 3:00 PM)29.74 "Hg (May 14, 6:00 AM)
Average55 °F74%29.98 "Hg
* Reported May 12 9:00 PM — May 27 9:00 PM, Gliwice, Weather by CustomWeather, © 2015

Note: Actual official high and low records may vary slightly from our data, if they occured in-between our weather recording intervals... More about our weather records

Advertising

Gliwice weather history for previous 24 hours

 ConditionsComfort  
Time TempWeatherWind HumidityBarometerVisibility
9:00 PM
Wed, May 27
50 °FPassing clouds.8 mph71%30.04 "HgN/A
8:30 PM50 °FSunny.8 mph71%30.04 "Hg10 mi
8:00 PM50 °FSunny.9 mph71%30.04 "Hg10 mi
7:30 PM52 °FSunny.8 mph67%30.04 "Hg10 mi
7:00 PM52 °FSunny.9 mph67%30.04 "Hg10 mi
6:30 PM52 °FPartly sunny.15 mph62%30.04 "HgN/A
6:00 PM52 °FPartly sunny.13 mph67%30.01 "HgN/A
5:30 PM52 °FPartly sunny.12 mph62%30.01 "HgN/A
5:00 PM54 °FPartly sunny.13 mph58%30.01 "HgN/A
4:30 PM54 °FBroken clouds.16 mph63%30.01 "HgN/A
4:00 PM54 °FPartly sunny.15 mph58%30.01 "HgN/A
3:30 PM52 °FBroken clouds.17 mph58%30.01 "HgN/A
3:00 PM54 °FBroken clouds.13 mph63%30.01 "HgN/A
2:30 PM52 °FBroken clouds.13 mph62%30.01 "HgN/A
2:00 PM52 °FBroken clouds.15 mph62%30.01 "HgN/A
1:30 PM54 °FBroken clouds.13 mph58%30.01 "HgN/A
1:00 PM54 °FBroken clouds.13 mph58%30.01 "HgN/A
12:30 PM54 °FBroken clouds.13 mph58%30.01 "HgN/A
12:00 PM52 °FBroken clouds.14 mph67%30.01 "HgN/A
11:30 AM52 °FBroken clouds.14 mph62%30.01 "HgN/A
11:00 AM52 °FBroken clouds.13 mph58%30.01 "HgN/A
10:30 AM52 °FBroken clouds.17 mph67%30.01 "HgN/A
10:00 AM50 °FBroken clouds.13 mph71%30.01 "HgN/A
9:30 AM50 °FScattered clouds.13 mph71%30.01 "HgN/A
9:00 AM50 °FScattered clouds.12 mph71%29.98 "HgN/A
8:30 AM48 °FPassing clouds.12 mph76%30.01 "HgN/A
8:00 AM48 °FPassing clouds.10 mph76%30.01 "HgN/A
7:30 AM46 °FSunny.10 mph82%29.98 "Hg10 mi
7:00 AM46 °FSunny.10 mph76%29.98 "Hg10 mi
6:30 AM46 °FSunny.10 mph82%29.98 "Hg10 mi
6:00 AM46 °FSunny.8 mph82%29.98 "Hg10 mi
5:30 AM46 °FClear.9 mph82%29.98 "Hg10 mi
5:00 AM46 °FClear.10 mph82%29.95 "Hg10 mi
4:30 AM48 °FClear.10 mph76%29.95 "Hg10 mi
4:00 AM48 °FClear.10 mph76%29.95 "Hg10 mi
3:30 AM48 °FClear.10 mph76%29.92 "Hg10 mi
3:00 AM50 °FClear.12 mph76%29.92 "Hg10 mi
2:30 AM50 °FClear.10 mph76%29.92 "Hg10 mi
2:00 AM52 °FClear.13 mph72%29.92 "Hg10 mi
1:30 AM52 °FClear.13 mph72%29.92 "Hg10 mi
1:00 AM52 °FClear.14 mph77%29.89 "Hg10 mi
12:30 AM52 °FPassing clouds.14 mph77%29.89 "HgN/A
12:00 AM52 °FPassing clouds.10 mph82%29.89 "HgN/A
11:30 PM
Tue, May 26
52 °FLight rain. Passing clouds.10 mph88%29.89 "HgN/A
11:00 PM54 °FPassing clouds.9 mph77%29.89 "HgN/A
10:30 PM54 °FPassing clouds.10 mph82%29.89 "HgN/A
10:00 PM54 °FLight rain. Passing clouds.8 mph82%29.89 "HgN/A
Weather by CustomWeather, © 2015

See weather overviewHow to use our weather pages